Regional Weather Roundup
Issued by NWS

Home | Current Version | Previous Version | Graphics & Text | Print | Product List | Glossary On
Versions: 1 2 3 4 5 6 7 8 9 10 11 12 13 14 15 16 17 18 19 20 21 22 23 24 25 26 27 28 29 30 31 32 33 34 35 36 37 38 39 40 41 42 43 44 45 46 47 48 49 50
000
ASUS45 KABQ 171901
RWRNM
WEATHER ROUNDUP FOR NEW MEXICO
NATIONAL WEATHER SERVICE ALBUQUERQUE NM
100 PM MDT THU APR 17 2014

NOTE: "FAIR" MEANS FEW OR NO CLOUDS BELOW 12,000 FEET AGL WITH NO
       SIGNIFICANT WEATHER OR OBSTRUCTIONS TO VISION.

      THIS PRODUCT IS RELEASED AS TWO VERSIONS.  ONE VERSION NEAR
      THE TOP OF THE HOUR CONTAINING PRELIMINARY DATA FROM ALBUQUERQUE
      AND OTHER STATIONS.  A FINAL VERSION WITH ADDITIONAL DATA IS
      ISSUED ABOUT 10 MINUTES AFTER THE HOUR.

NMZ501-503-504-510>518-172000-
NORTHWEST PLATEAU/NORTHCENTRAL MOUNTAINS

CITY           SKY/WX    TMP DP  RH WIND       PRES   REMARKS
FARMINGTON     SUNNY     62  19  19 W7        30.12F
SANTA FE       SUNNY     55  26  32 SE8G17    30.17F
TAOS           MOSUNNY   54  27  35 W5        30.19F

$$
NMZ402-403-502-505>509-172000-
WESTCENTRAL MOUNTAINS/SOUTHWEST MOUNTAINS

CITY           SKY/WX    TMP DP  RH WIND       PRES   REMARKS
GALLUP         SUNNY     62  21  20 VRB3      30.15F
SILVER CITY    SUNNY     72  14  11 E12G20    30.11F

$$
NMZ407-409-411-412-172000-
SOUTHERN DESERTS

CITY           SKY/WX    TMP DP  RH WIND       PRES   REMARKS
DEMING         SUNNY     76  20  12 S8        30.06F
HOLLOMAN AFB   MOSUNNY   71  25  17 VRB6      30.08F
T OR C         SUNNY     68  25  19 MISG      30.10F

$$
NMZ519>523-172000-
CENTRAL VALLEYS/CENTRAL HIGHLANDS

CITY           SKY/WX    TMP DP  RH WIND       PRES   REMARKS
ALBUQUERQUE    CLOUDY    62  22  21 CALM      30.15F
DOUBLE EAGLE   MOSUNNY   61  25  25 VRB7      30.16F
CLINES CORNERS SUNNY     47  29  49 VRB6      30.21F
BELEN          FAIR      63  27  25 SW7       30.14F
SOCORRO        NOT AVBL

$$
NMZ524>526-539-540-172000-
SOUTHCENTRAL MOUNTAINS

CITY           SKY/WX    TMP DP  RH WIND       PRES   REMARKS
RUIDOSO        NOT AVBL

$$
NMZ527>531-172000-
NORTHEAST HIGHLANDS/NORTHEAST PLAINS

CITY           SKY/WX    TMP DP  RH WIND       PRES   REMARKS
LAS VEGAS      CLOUDY    45  29  53 MISG      30.22F
RATON          CLOUDY    42  33  70 SW9       30.22F
CLAYTON        CLOUDY    46  33  60 E9        30.23F

$$
NMZ532>537-172000-
EASTCENTRAL PLAINS

CITY           SKY/WX    TMP DP  RH WIND       PRES   REMARKS
TUCUMCARI      PTSUNNY   55  34  45 NE9G22    30.20F
CANNON AFB     SUNNY     58  33  38 NE13G26   30.17F
CLOVIS AIRPORT MOSUNNY   59  36  41 N16G22    30.21S

$$
NMZ028-029-538-172000-
SOUTHEAST PLAINS

CITY           SKY/WX    TMP DP  RH WIND       PRES   REMARKS
ROSWELL        SUNNY     66  32  28 N16       30.15F
CARLSBAD         N/A     68  31  25 N20G26    30.13F
HOBBS          SUNNY     66  34  30 N15G24    30.13S


$$



USA.gov is the U.S. government's official web portal to all federal, state and local government web resources and services.